User: anonymous   Login
Location: Caltech
(34.1382°N, 118.1253°W)
Time: 13:27:50
(UTC-07:00)
Language:

Oscar 10/S400 - Orbit

View from above orbital plane
View from above orbital plane
View from above satellite
View from above satellite

Ground track
Ground track

The orbit data is extracted from the following two-line orbital elements,

1 14129U 83058B   17141.67733056 -.00000207 +00000-0 +00000-0 0  9992
2 14129 026.9848 038.4465 6023319 298.4910 012.9231 02.05869068227275
Epoch (UTC): 21 May 2017 16:15:21
Eccentricity: 0.6023319
inclination: 26.9848°
perigee height: 4002 km
apogee height: 35445 km
right ascension of ascending node: 38.4465°
argument of perigee: 298.4910°
revolutions per day: 2.05869068
mean anomaly at epoch: 12.9231°
orbit number at epoch: 22727

The dashed part of the orbit path shows where the satellite is in the earth's shadow,  

DLR